Weather History for Muncie, IN

Change the Weather History Date:

Thursday, May 24, 2012

  Actual Average Record
Temperature  
Mean Temperature 75 °F 64 °F  
Max Temperature 86 °F 74 °F 88 °F (2007)
Min Temperature 63 °F 54 °F 34 °F (1963)
Degree Days  
Heating Degree Days 0 4  
Month to date heating degree days 44 147  
Since 1 July heating degree days 4659 5739  
Cooling Degree Days 10 3  
Month to date cooling degree days 58 43  
Year to date cooling degree days 100 58  
Growing Degree Days 24 (Base 50)    
Moisture  
Dew Point 54 °F    
Average Humidity 56    
Maximum Humidity 84    
Minimum Humidity 27    
Precipitation  
Precipitation 0.00 in 0.15 in 2.33 in (1993)
Month to date precipitation 2.48 3.31  
Year to date precipitation 11.41 14.47  
Sea Level Pressure  
Sea Level Pressure 29.83 in    
Wind  
Wind Speed 10 mph (South)    
Max Wind Speed 23 mph    
Max Gust Speed 29 mph    
Visibility 10 miles    
Events      
T = Trace of Precipitation, MM = Missing Value Source: NWS Daily Summary

Daily Weather History Graph

Daily Weather History Graph

Search for Another Location

Airport:

Trip Planner

Search our weather history database for the weather conditions in past years. The results will help you decide how hot, cold, wet, or windy it might be!

Date:

Astronomy

May. 24, 2012 Rise Set
Actual Time 6:18 AM EDT 8:59 PM EDT
Civil Twilight 5:46 AM EDT 9:30 PM EDT
Nautical Twilight 5:06 AM EDT 10:10 PM EDT
Astronomical Twilight 4:22 AM EDT 10:55 PM EDT
Moon 9:17 AM EDT (5/24) 11:59 PM EDT (5/24)
Length of Visible Light 15h 44m
Length of Day
14h 41m
Waxing Crescent, 12% of the Moon is Illuminated
May 24
Waxing Crescent
May 28
First Quarter
Jun 4
Full
Jun 11
Last Quarter
Jun 19
New

Hourly Weather History & Observations

Time (EDT) Temp. Heat Index Dew Point Humidity Pressure Visibility Wind Dir Wind Speed Gust Speed Precip Events Conditions
12:53 AM 66.9 °F - 55.9 °F 68% 29.84 in 9.0 mi SSE 4.6 mph - N/A   Clear
1:53 AM 66.0 °F - 55.9 °F 70% 29.83 in 9.0 mi SSE 4.6 mph - N/A   Clear
2:53 AM 64.9 °F - 57.0 °F 75% 29.84 in 10.0 mi South 5.8 mph - N/A   Clear
3:53 AM 64.9 °F - 57.0 °F 75% 29.85 in 10.0 mi South 4.6 mph - N/A   Clear
4:53 AM 64.0 °F - 57.0 °F 78% 29.85 in 9.0 mi South 3.5 mph - N/A   Clear
5:53 AM 64.0 °F - 57.0 °F 78% 29.85 in 8.0 mi SSE 5.8 mph - N/A   Clear
6:53 AM 63.0 °F - 57.9 °F 84% 29.86 in 6.0 mi SSE 4.6 mph - N/A   Haze
7:53 AM 66.9 °F - 59.0 °F 76% 29.88 in 8.0 mi South 6.9 mph - N/A   Clear
8:53 AM 72.0 °F - 60.1 °F 66% 29.90 in 10.0 mi South 6.9 mph - N/A   Clear
9:53 AM 75.0 °F - 59.0 °F 57% 29.90 in 10.0 mi SSW 10.4 mph - N/A   Clear
10:53 AM 79.0 °F - 57.9 °F 48% 29.88 in 10.0 mi South 10.4 mph 17.3 mph N/A   Clear
11:53 AM 79.0 °F - 54.0 °F 42% 29.87 in 10.0 mi SSW 12.7 mph - N/A   Partly Cloudy
12:53 PM 82.0 °F 81.3 °F 54.0 °F 38% 29.84 in 10.0 mi South 13.8 mph 23.0 mph N/A   Scattered Clouds
1:53 PM 84.0 °F 82.5 °F 53.1 °F 34% 29.83 in 10.0 mi South 16.1 mph 21.9 mph N/A   Partly Cloudy
2:53 PM 84.9 °F 83.2 °F 53.1 °F 33% 29.81 in 10.0 mi SSE 16.1 mph 25.3 mph N/A   Partly Cloudy
3:53 PM 86.0 °F - 52.0 °F 31% 29.80 in 10.0 mi South 11.5 mph 26.5 mph N/A   Scattered Clouds
4:53 PM 84.9 °F - 48.9 °F 29% 29.79 in 10.0 mi South 10.4 mph 23.0 mph N/A   Clear
5:53 PM 84.9 °F - 46.0 °F 26% 29.78 in 10.0 mi South 16.1 mph 25.3 mph N/A   Clear
6:53 PM 84.0 °F - 48.0 °F 28% 29.76 in 10.0 mi SSW 13.8 mph 21.9 mph N/A   Clear
7:53 PM 82.0 °F - 46.9 °F 29% 29.76 in 10.0 mi South 15.0 mph 24.2 mph N/A   Clear
8:53 PM 79.0 °F - 48.9 °F 35% 29.76 in 10.0 mi South 9.2 mph - N/A   Clear
9:53 PM 78.1 °F - 51.1 °F 39% 29.78 in 10.0 mi South 11.5 mph 21.9 mph N/A   Clear
10:53 PM 75.9 °F - 50.0 °F 40% 29.79 in 10.0 mi South 11.5 mph 20.7 mph N/A   Clear
11:53 PM 75.0 °F - 52.0 °F 44% 29.82 in 10.0 mi South 10.4 mph - N/A   Clear